Wind_Speed
12 12 12 12 12 12 11 10 9 9 8 8 7 7 7 6 6 5 5 5 6 5 5 4 5 6 7 8 8 9 9 9 9 10 10 10 10 10 10 10 11 12 12 13 13 14 14 15 16 16 17 17 18 18 18 18 18 19 19 19 20 20 21 21 22 23 23 24 24
12 11 10 10 10 10 9 9 9 8 8 8 8 7 7 7 6 6 6 6 6 5 4 5 7 8 8 9 9 9 9 9 10 10 10 10 10 10 10 11 11 12 12 13 13 14 15 15 16 17 17 18 18 18 19 19 19 19 19 20 20 20 21 22 22 23 23 24 24
11 10 10 9 9 9 8 8 8 8 8 8 7 7 8 7 7 6 6 6 5 5 5 6 8 9 9 9 9 9 9 9 10 10 11 10 10 10 11 11 11 12 12 13 14 14 15 15 16 17 17 18 18 19 19 19 19 19 20 20 20 21 21 22 23 23 23 23 24
11 11 10 10 9 9 8 8 8 8 7 7 6 7 8 8 8 7 6 5 5 5 6 8 9 9 9 9 9 9 9 10 10 11 11 11 11 11 11 11 12 12 13 14 14 15 15 16 16 17 17 18 18 19 19 19 19 20 20 21 21 21 22 23 23 23 23 24 24
11 11 10 10 10 9 9 8 8 8 7 7 6 6 7 8 7 7 6 5 5 6 7 8 9 9 9 10 10 10 10 11 11 11 11 11 11 12 12 12 12 13 13 14 15 15 15 16 16 17 17 18 18 19 19 19 20 20 21 21 22 22 23 23 24 24 24 24 25
11 10 10 10 10 9 9 8 8 7 7 6 6 6 7 7 7 7 6 5 5 6 8 8 8 9 10 11 11 11 11 11 12 12 12 12 12 12 13 13 13 13 14 15 15 16 16 16 17 17 18 18 19 19 19 19 20 21 22 23 23 23 23 24 24 24 25 26 26
10 10 10 10 10 10 9 8 7 6 6 6 6 7 7 8 7 7 5 5 6 7 8 8 8 10 11 12 12 12 12 12 12 12 12 13 13 13 13 13 14 14 15 15 16 16 16 17 18 18 19 19 19 19 20 20 21 22 23 24 24 24 24 24 25 25 26 27 28
10 10 10 10 10 10 9 8 7 6 6 7 7 7 7 8 7 6 6 6 7 8 8 8 9 10 11 12 12 12 12 13 13 13 13 13 14 14 14 14 14 15 15 16 16 17 17 18 18 19 19 19 20 20 21 21 22 23 24 25 25 24 24 25 26 26 27 28 29
10 10 10 10 10 9 9 8 7 7 7 7 7 7 7 7 7 6 7 8 8 8 7 8 9 11 12 12 12 12 12 13 13 14 14 14 14 14 14 15 15 16 16 16 17 17 18 19 19 19 20 20 21 22 22 23 23 24 24 25 25 25 25 26 27 27 28 28 29
9 9 9 10 9 9 8 7 7 6 6 6 7 7 7 7 6 7 7 8 8 7 7 9 10 12 12 12 12 12 13 13 13 14 14 14 15 15 15 15 16 16 17 17 18 18 19 19 20 20 21 21 22 23 23 24 24 24 25 24 25 26 27 27 28 28 28 28 29
9 9 9 9 9 8 7 6 7 7 7 7 7 7 6 6 6 7 7 7 7 7 8 10 11 11 11 12 12 13 13 13 14 14 14 15 15 15 16 16 16 17 17 18 18 19 20 20 21 21 22 22 23 23 24 24 24 24 25 25 26 27 27 28 28 28 28 28 29
9 9 9 9 8 7 7 6 7 7 7 7 7 7 7 6 6 7 7 7 8 9 9 10 10 11 11 12 12 13 13 13 14 14 15 15 15 16 16 16 17 17 18 18 19 20 20 21 22 22 23 23 23 24 24 24 25 25 25 26 26 27 27 28 29 28 28 28 29
9 9 9 8 8 7 7 7 7 7 6 6 6 6 6 6 6 7 8 9 10 10 10 10 10 10 11 12 13 13 13 14 14 14 15 15 16 16 16 17 17 18 19 19 20 20 21 22 22 23 24 24 24 24 24 25 25 25 25 26 26 27 28 29 29 29 29 29 29
8 8 8 8 7 7 7 7 7 6 5 5 5 6 6 5 6 7 8 10 11 11 10 10 10 11 12 13 13 13 13 14 14 15 16 16 16 17 17 18 18 19 19 20 21 21 21 22 22 23 24 25 25 25 25 25 25 25 25 26 27 27 28 29 29 29 29 30 30
8 8 8 7 7 7 6 6 5 5 4 4 5 6 6 6 6 7 9 10 11 11 11 11 11 12 13 13 13 13 14 14 15 16 16 17 17 18 18 19 19 20 20 21 21 22 22 22 23 23 24 25 25 26 26 25 25 25 25 26 27 28 28 29 29 29 29 29 30
7 7 7 7 6 6 6 5 5 4 4 5 6 7 7 7 7 9 10 10 11 11 11 12 12 13 13 13 14 14 14 15 16 16 17 18 18 19 19 19 20 20 21 22 22 22 23 23 23 24 24 25 26 26 26 25 25 25 25 26 27 28 28 28 29 29 29 29 30
7 6 6 6 6 6 6 6 6 6 6 6 7 7 7 8 9 9 10 10 11 11 12 12 13 13 14 14 14 15 15 16 16 17 18 18 19 19 20 20 20 21 21 22 23 23 24 24 24 24 25 25 25 25 25 25 25 25 26 27 27 28 28 28 28 29 29 29 30
6 5 5 5 5 6 6 6 6 7 7 7 7 7 8 9 9 10 10 10 11 12 12 13 13 14 14 14 15 15 16 16 17 18 18 19 19 19 20 20 21 21 22 22 23 24 24 24 25 25 25 25 25 25 25 25 25 26 27 27 28 27 27 28 28 28 29 29 30
5 4 4 5 5 6 6 7 7 7 7 7 7 7 8 8 9 10 10 10 11 12 12 13 14 14 14 15 16 16 17 17 18 18 19 19 19 20 20 21 21 22 22 23 23 24 24 25 25 25 25 25 25 25 25 25 26 26 27 27 27 27 27 28 28 28 29 29 30
4 4 5 5 6 6 7 7 7 7 7 6 6 7 7 8 9 9 10 11 11 12 12 13 14 14 15 16 17 17 18 18 18 18 19 19 19 20 20 21 21 22 22 23 24 24 25 25 25 25 25 25 25 26 26 26 26 26 27 27 27 27 27 28 28 29 29 29 30
4 4 5 6 6 7 7 7 7 7 6 6 6 7 7 8 9 9 10 11 11 12 12 13 14 15 16 17 18 18 18 18 18 19 19 19 20 20 21 21 22 22 23 23 24 24 25 25 25 26 25 25 25 25 26 26 26 26 27 27 27 27 28 28 29 29 29 29 30
4 5 6 6 6 7 7 7 7 6 6 5 6 7 7 8 9 10 10 11 11 12 12 13 14 15 16 17 18 18 19 19 19 19 19 19 20 20 21 21 22 23 23 24 24 25 25 25 25 25 25 25 25 25 26 26 26 27 27 27 28 28 28 29 29 29 29 29 29
5 6 6 6 7 7 7 6 6 6 5 5 6 7 8 8 9 10 11 11 11 12 13 14 15 16 17 17 18 18 19 19 19 19 19 20 20 21 21 22 22 23 23 24 24 25 25 25 25 25 25 25 26 26 26 26 26 26 27 27 28 29 29 29 29 29 29 29 29
6 6 6 6 6 6 6 6 5 5 5 6 6 7 8 9 10 10 11 11 12 13 14 15 16 16 17 17 18 18 18 19 20 20 20 21 21 22 22 22 23 23 23 24 24 24 24 25 25 26 26 26 26 26 26 26 26 26 27 27 28 29 29 29 28 28 28 29 28
6 6 6 6 6 6 5 5 5 5 5 6 7 8 9 9 10 11 11 12 13 13 15 15 16 17 17 18 18 18 18 19 20 21 21 22 22 22 23 23 23 23 24 24 24 23 24 24 25 26 27 27 27 27 26 26 26 26 26 27 27 28 29 29 28 28 28 28 28
6 6 6 5 5 5 4 4 4 5 5 6 7 8 9 10 10 11 12 12 13 14 15 16 17 17 18 18 18 19 19 20 20 21 22 23 23 23 23 24 24 24 24 24 24 24 25 26 26 26 27 27 27 27 27 26 26 25 26 26 27 27 27 28 28 28 28 27 27
6 5 5 5 5 4 4 4 4 5 6 7 8 8 9 10 10 11 12 13 14 15 16 17 17 18 18 18 19 19 20 21 21 22 22 23 23 24 24 24 24 24 24 24 24 25 26 26 26 26 26 26 27 27 26 26 26 26 26 26 26 26 26 27 28 28 28 27 27
5 5 4 4 4 3 3 3 4 5 6 7 8 9 9 10 11 11 12 14 15 16 17 18 18 18 18 19 19 20 21 21 22 22 23 23 24 24 25 25 25 25 25 25 25 26 26 26 26 26 26 26 26 26 26 26 26 26 25 25 25 25 26 26 27 27 27 27 27
4 4 4 4 3 3 2 3 4 5 6 7 8 9 9 10 11 12 13 15 16 17 18 18 18 19 19 20 20 21 21 22 22 23 23 24 24 25 25 25 26 26 26 25 25 26 26 26 26 26 26 26 26 26 26 25 25 25 25 24 24 25 25 26 26 26 27 27 27
4 4 3 3 2 2 2 3 4 6 7 7 8 9 10 11 12 13 14 16 16 17 18 18 19 19 20 20 21 21 22 22 23 23 24 24 25 25 25 26 26 26 26 25 25 25 25 25 26 26 26 26 26 26 25 25 24 24 24 24 24 25 25 26 26 26 26 27 28
3 3 3 2 2 1 2 3 5 6 7 8 8 9 10 11 12 14 15 16 17 18 18 18 19 20 20 21 21 22 22 23 23 24 24 24 25 26 26 26 26 26 26 25 25 25 25 26 26 26 26 26 26 25 25 25 24 24 24 24 24 25 25 25 26 26 27 27 28
3 3 2 2 1 1 3 4 5 6 7 8 9 9 10 12 13 14 16 16 17 18 18 19 19 20 21 21 21 22 22 23 24 24 24 25 25 26 27 27 26 26 26 25 25 25 26 26 26 26 26 26 26 25 25 24 24 24 24 24 24 25 25 25 25 26 27 28 28
2 2 2 1 1 2 3 4 5 6 7 8 9 10 11 13 14 15 16 17 17 18 18 19 19 20 21 21 22 23 23 24 24 24 25 25 26 26 27 27 26 26 25 25 25 26 26 27 27 27 26 26 26 25 24 24 23 23 23 24 24 24 24 25 26 27 27 27 28
2 1 1 1 2 3 4 5 6 7 8 9 9 11 12 14 15 16 17 17 18 18 18 19 19 20 20 21 22 23 24 24 24 25 25 26 26 26 27 27 26 26 25 25 26 26 26 26 26 26 26 26 25 24 24 24 23 23 23 24 24 24 24 25 26 26 27 27 27
1 1 1 2 3 3 4 5 6 7 8 9 10 12 13 14 16 16 17 17 18 18 18 19 19 20 21 21 22 23 24 24 25 25 26 26 26 27 27 27 27 27 26 26 26 26 26 26 26 26 26 25 24 24 24 23 23 23 23 24 24 24 25 25 25 26 26 26 26
0 0 1 2 3 4 5 6 7 8 9 10 12 13 14 15 16 17 17 17 18 18 19 19 20 21 21 22 22 23 23 24 25 26 26 26 26 27 28 28 28 28 27 26 26 26 26 26 26 26 25 25 24 23 23 22 22 22 23 23 23 24 25 25 25 25 25 25 25
1 1 2 3 3 4 5 6 7 8 10 11 12 14 15 16 17 17 17 17 18 18 19 20 21 21 22 22 23 23 24 25 25 26 26 26 27 27 28 28 28 28 28 27 26 26 26 26 26 25 25 24 24 23 22 22 21 21 22 23 24 24 25 25 25 25 25 25 25
2 2 3 3 4 5 5 7 8 9 10 12 13 14 15 16 17 17 17 17 18 19 20 21 21 22 22 23 24 24 25 25 25 26 26 27 27 27 28 28 29 29 28 27 27 26 26 26 25 24 24 23 23 23 22 21 21 22 22 23 24 25 25 24 24 25 25 26 26
2 3 3 4 4 5 6 7 8 10 11 13 14 15 15 16 17 17 17 17 18 19 20 21 22 22 23 23 24 25 25 25 25 26 26 27 27 27 27 28 28 29 28 28 27 26 25 25 24 24 23 23 22 22 21 21 22 22 23 24 25 25 25 25 24 25 27 28 28
3 3 3 4 5 6 7 8 9 11 12 13 14 15 16 16 17 17 17 18 18 19 20 21 22 23 23 24 24 25 26 26 26 26 26 27 27 27 27 27 28 28 28 28 27 26 25 24 23 23 23 22 22 21 21 21 22 23 23 24 24 25 25 25 25 26 28 29 28
3 3 4 4 5 6 8 9 10 11 12 13 14 15 15 16 17 17 18 18 19 20 21 21 22 23 23 24 24 25 26 27 27 27 27 27 27 27 26 27 28 28 28 27 26 25 24 24 23 22 22 21 22 22 21 21 22 23 23 24 24 24 25 26 27 28 28 27 25
Wind_Direction
99 97 96 95 95 95 94 94 94 95 94 91 88 85 83 79 73 63 54 47 47 44 34 17 2 358 358 358 359 360 359 357 356 354 354 354 353 350 346 343 341 339 338 335 333 331 329 327 325 323 322 321 319 318 316 314 312 309 308 307 307 308 308 308 308 307 307 306 305
91 90 88 87 86 85 85 84 86 87 88 86 83 80 78 75 69 60 49 41 38 33 20 0 354 355 359 1 2 360 356 354 351 350 350 351 350 346 343 340 338 336 334 332 330 328 327 326 324 322 321 320 318 316 314 312 310 308 307 307 307 307 308 308 307 306 306 305 304
92 92 92 92 91 90 88 86 84 82 79 76 71 66 64 63 60 54 46 39 31 18 2 354 354 358 1 1 359 356 353 350 348 347 348 347 345 343 340 337 334 332 331 329 327 326 325 324 322 321 320 318 316 314 312 311 309 308 307 307 307 307 307 307 306 306 305 304 304
101 99 98 98 98 96 93 90 86 83 78 73 65 57 55 56 55 50 42 34 24 7 356 353 356 359 359 356 353 350 348 346 345 345 345 344 342 339 337 334 332 329 327 326 325 324 324 322 321 319 318 316 315 313 311 310 309 307 306 306 306 306 306 306 305 305 304 303 303
106 105 104 103 102 100 96 91 87 84 82 78 69 57 52 54 55 48 37 26 14 358 350 351 354 355 353 349 348 346 345 345 345 345 344 342 339 337 335 332 329 327 325 324 324 323 322 321 320 318 316 315 313 311 310 309 308 306 305 305 305 305 305 304 304 304 303 302 302
110 109 109 107 104 101 96 91 86 84 85 80 68 54 47 50 54 48 35 20 3 350 347 349 350 348 347 347 346 345 344 343 344 344 342 340 338 336 334 331 328 325 324 323 322 322 321 320 318 317 315 314 312 310 309 308 306 305 305 304 304 304 304 304 303 303 303 302 301
111 108 105 102 101 98 95 91 85 79 74 67 56 46 40 41 46 44 30 8 355 351 351 349 345 343 344 345 345 344 343 343 343 342 341 339 337 336 333 330 326 324 323 322 321 320 320 319 317 316 314 313 311 309 308 307 305 305 304 304 304 304 304 303 303 303 303 301 301
108 102 97 94 92 90 89 88 83 73 62 56 51 42 34 32 36 31 16 2 1 1 356 346 339 338 341 343 344 343 342 342 341 341 340 338 336 334 331 328 325 323 322 321 320 319 318 317 315 314 313 311 309 308 307 306 305 304 304 303 303 303 303 303 303 303 302 301 300
104 96 91 88 84 81 79 78 75 68 60 54 50 43 35 29 24 15 6 5 8 5 352 337 333 335 339 342 343 343 341 341 339 338 337 336 334 332 329 326 324 322 321 320 319 318 316 315 314 312 311 310 308 307 307 306 306 305 304 303 303 303 304 304 304 303 302 301 299
105 97 91 86 82 79 74 69 66 61 54 48 47 46 40 28 17 6 2 5 6 357 342 332 332 336 339 341 341 341 339 338 336 335 334 333 331 329 327 325 322 321 319 318 317 316 315 314 313 311 310 309 307 307 306 306 306 305 304 303 303 304 304 304 304 304 303 301 300
104 96 90 86 85 83 79 68 62 56 48 39 37 40 40 29 13 1 357 357 354 345 336 333 336 338 339 339 338 337 336 335 334 332 331 329 328 326 324 322 320 319 317 316 315 314 314 313 312 310 309 308 308 307 307 306 306 305 304 303 304 304 305 305 305 305 303 302 301
97 91 86 84 84 83 79 70 63 56 47 35 27 29 32 26 9 355 347 345 343 341 339 339 339 338 336 335 335 334 334 333 331 329 328 326 325 324 322 320 318 316 315 314 313 313 313 312 311 310 309 308 308 307 307 306 305 304 304 304 304 305 305 306 306 305 304 303 302
90 86 83 81 80 78 75 70 65 59 49 34 22 21 24 22 5 347 338 338 340 342 342 342 339 335 333 333 333 333 333 331 329 327 326 325 324 322 320 318 316 314 313 312 312 312 312 311 310 309 308 308 307 307 306 306 305 304 304 305 305 306 306 306 306 306 305 304 303
86 83 80 79 77 75 74 73 69 62 49 31 16 15 17 14 356 341 335 338 342 343 342 339 336 333 333 334 334 333 332 330 328 326 325 324 323 321 318 316 315 313 313 312 312 312 311 310 310 308 308 307 307 306 306 305 304 304 304 305 306 307 307 307 307 306 306 305 305
84 79 77 75 73 72 72 73 70 61 43 23 12 9 8 1 346 338 337 340 343 342 339 335 333 333 334 336 335 333 331 329 328 326 324 323 322 320 317 315 314 313 312 312 312 311 311 310 309 308 308 307 306 306 305 305 304 304 305 306 306 307 307 307 307 307 306 306 306
84 78 74 71 68 65 64 63 58 48 34 20 11 6 0 351 344 342 342 343 342 340 337 334 333 333 335 336 336 333 331 328 327 325 323 321 320 318 317 315 314 313 313 312 312 312 311 310 309 308 307 306 306 305 305 305 305 305 305 306 307 307 307 307 307 307 307 307 306
87 79 73 67 62 57 54 51 45 38 29 19 12 4 355 348 345 345 344 343 340 337 334 333 334 334 335 335 334 332 329 327 325 323 321 319 318 317 316 315 314 313 313 313 312 311 311 310 309 308 307 306 305 305 305 305 305 306 306 307 307 307 307 307 307 307 307 307 307
91 81 69 61 57 53 50 46 41 34 27 18 9 360 352 346 345 344 342 340 336 333 332 333 334 335 334 332 331 329 327 325 323 321 320 318 317 316 316 315 314 314 313 312 311 311 310 309 308 308 307 306 305 305 305 305 305 306 306 307 307 307 307 307 307 308 308 307 307
94 77 63 57 55 53 49 45 39 33 25 16 5 355 347 343 342 340 337 335 333 332 331 332 334 333 332 330 328 327 326 324 322 321 319 318 317 316 316 315 314 314 313 311 310 309 309 308 308 307 307 306 305 305 305 305 305 306 306 307 307 307 308 308 308 308 307 307 306
91 72 60 57 56 53 48 43 37 30 22 12 360 348 342 340 338 337 334 331 331 332 332 332 331 330 329 329 327 326 326 324 322 321 319 318 317 317 316 315 314 313 312 310 309 309 308 308 307 307 306 306 305 305 305 305 306 306 307 307 308 308 308 308 308 308 307 307 306
82 67 61 59 55 50 45 39 33 27 19 7 352 343 338 337 336 334 332 331 332 332 332 331 330 329 328 327 327 326 325 324 322 320 319 318 317 316 315 314 313 311 310 309 309 309 308 308 307 307 307 306 306 306 306 307 307 308 308 308 308 309 309 309 309 308 307 307 306
76 68 63 58 51 45 40 34 29 22 12 358 345 339 337 336 335 332 332 332 332 332 331 330 329 328 327 327 326 326 325 323 321 320 319 317 316 315 314 313 311 310 310 309 309 309 309 308 308 308 308 308 307 308 308 309 309 309 310 310 310 310 310 309 309 309 308 307 306
76 69 62 55 49 43 37 30 23 14 2 348 340 337 336 335 334 333 333 333 333 332 330 329 328 327 327 327 326 325 323 322 320 319 318 316 315 314 313 312 311 310 310 310 310 310 310 310 310 310 310 310 310 310 310 310 311 311 311 311 311 311 311 310 310 309 309 308 307
77 69 60 52 46 40 33 24 14 2 350 340 336 334 334 334 334 334 334 334 333 332 330 328 327 327 327 326 325 324 322 321 319 318 317 316 314 313 312 311 311 310 310 309 310 310 310 311 311 311 311 311 311 311 311 312 312 312 313 313 313 312 312 311 311 310 310 309 309
76 67 58 50 44 38 29 17 3 350 340 333 331 331 332 333 333 334 333 333 332 331 329 328 327 327 327 326 324 323 321 320 318 317 316 315 314 313 312 311 311 310 310 310 310 310 310 311 311 312 312 312 312 312 312 313 313 313 314 314 313 313 312 312 311 311 311 310 310
75 67 58 49 42 35 24 8 352 340 331 327 327 328 330 331 332 332 332 331 331 330 329 328 328 327 326 324 323 322 321 319 318 316 315 314 313 313 312 311 310 310 310 310 310 310 311 311 312 312 312 313 313 314 314 314 314 315 314 314 314 313 313 312 312 312 311 311 310
75 67 57 48 43 34 18 357 341 329 323 322 324 326 328 330 330 330 330 329 329 329 328 328 328 326 325 323 322 321 319 318 317 315 314 313 312 312 311 311 310 310 310 311 311 311 312 312 312 313 313 314 314 315 315 315 315 315 315 314 314 313 312 312 311 311 311 310 310
75 66 57 50 44 32 9 345 329 320 318 319 322 325 327 328 328 328 328 328 329 329 328 328 327 325 323 322 320 319 318 317 315 314 313 312 311 311 310 310 310 311 311 311 312 312 312 313 313 314 315 315 315 315 315 315 315 315 315 314 313 312 311 311 310 310 310 310 311
76 65 58 55 46 27 357 331 319 315 315 318 321 324 325 326 326 327 328 328 328 328 328 327 326 324 322 320 319 318 317 315 314 313 313 312 311 311 311 311 311 311 312 312 312 313 313 314 314 315 315 316 316 316 315 315 314 314 313 313 312 311 310 310 310 309 309 310 311
74 66 61 58 47 21 342 320 312 312 314 317 320 322 323 325 326 327 328 328 328 327 327 326 324 322 320 318 318 316 315 314 314 313 313 312 312 311 311 311 312 312 313 313 313 314 314 315 315 315 316 316 316 315 315 314 313 313 312 311 310 310 309 309 309 309 309 310 311
72 66 64 60 43 2 323 310 308 310 313 316 319 321 323 324 326 327 327 327 327 327 326 325 322 320 318 317 317 315 314 314 313 313 313 312 312 312 312 312 312 313 314 314 314 315 315 315 316 316 316 316 316 315 314 313 312 311 310 309 309 309 309 309 309 309 310 310 310
71 65 61 53 20 332 310 304 305 308 311 315 319 322 323 325 325 326 327 328 327 326 325 323 321 318 317 317 316 314 313 313 313 313 313 313 312 312 312 313 313 314 315 315 315 315 315 316 316 316 316 316 315 314 313 312 311 309 308 308 308 308 308 309 309 309 309 309 308
70 61 49 23 335 311 302 300 302 307 311 317 321 323 324 324 326 327 328 329 327 325 322 320 318 317 316 315 314 314 313 313 313 313 313 313 313 313 313 313 314 315 315 315 316 315 315 316 316 315 315 315 314 313 312 311 309 308 307 307 307 308 308 308 308 308 307 307 306
68 57 29 336 308 300 298 299 304 308 314 319 322 324 325 326 327 327 328 328 326 323 320 318 316 314 313 313 313 312 312 313 313 314 314 314 314 314 314 314 314 315 315 315 315 315 315 315 315 315 315 314 314 313 311 310 309 308 307 307 307 308 308 308 307 306 305 304 303
71 53 322 293 292 294 298 302 307 313 318 322 324 326 327 327 327 327 327 326 324 321 318 316 315 314 313 312 312 312 313 313 314 314 315 315 316 315 315 314 314 315 315 315 315 315 315 315 315 314 314 314 313 312 311 310 309 308 308 308 308 308 308 308 307 305 304 303 302
109 258 275 279 286 293 299 305 312 318 321 324 326 327 328 328 327 327 326 325 322 318 316 315 314 314 313 313 313 314 314 314 315 316 316 317 316 316 315 315 315 315 316 315 315 315 315 315 314 314 314 313 313 312 311 310 309 309 309 310 310 310 309 308 307 305 304 303 303
226 250 266 277 286 294 302 310 317 321 324 326 327 328 328 328 327 326 326 323 320 316 315 314 314 313 313 313 314 315 315 316 316 316 317 317 317 316 315 315 315 315 316 316 316 315 315 314 314 314 314 313 312 312 312 311 311 311 311 311 311 311 310 309 307 306 305 304 303
233 254 269 281 288 298 307 315 320 323 325 327 328 329 328 327 325 325 324 321 318 315 314 314 313 313 314 314 315 315 316 317 317 317 317 317 317 317 316 315 315 315 316 316 316 315 315 314 314 314 314 313 313 313 313 313 313 312 312 312 312 311 310 309 308 307 306 304 301
237 257 272 284 293 302 313 320 325 327 328 329 329 329 328 326 323 322 321 318 316 313 313 312 312 313 314 315 316 316 317 317 318 318 317 317 317 317 316 315 315 315 316 316 315 315 314 314 313 313 313 313 314 314 315 314 314 313 313 313 312 312 311 310 309 308 306 303 299
241 259 273 285 298 310 319 325 329 331 331 330 328 328 326 323 321 319 317 315 314 312 312 311 312 313 315 316 316 317 317 318 318 319 318 318 318 317 317 316 315 315 316 316 315 315 314 313 313 313 314 314 315 316 317 316 315 314 313 312 312 311 311 311 310 308 305 301 298
247 262 276 290 305 318 326 330 332 333 333 330 328 326 324 321 318 316 314 313 312 312 312 312 313 315 316 317 317 317 317 318 319 319 319 318 318 318 317 317 316 316 316 316 315 315 314 314 314 314 315 316 317 318 318 318 316 314 313 312 311 310 310 311 310 307 303 299 298
Height
783 783 784 784 785 785 785 786 786 786 786 786 787 787 787 787 787 787 787 787 787 787 786 786 786 786 786 785 785 785 784 784 783 783 782 782 782 781 781 781 781 780 780 779 779 778 778 777 777 776 776 775 774 773 773 772 771 771 770 769 768 768 767 766 765 764 763 762 761
784 784 785 785 785 786 786 786 786 786 786 787 787 787 787 787 787 787 787 787 787 787 786 786 786 786 786 785 785 785 784 784 783 782 782 782 781 781 781 781 780 780 779 779 778 778 777 777 776 776 775 774 773 773 772 771 771 770 769 768 768 767 766 765 764 763 762 761 760
784 785 785 786 786 786 786 786 786 786 787 787 787 787 787 787 787 787 787 787 787 787 786 786 786 786 785 785 785 784 784 783 783 782 782 781 781 781 781 780 780 779 779 779 778 777 777 776 776 775 774 773 773 772 771 771 770 770 769 768 767 766 765 764 763 762 761 760 759
784 785 785 785 786 786 786 786 786 787 787 787 787 787 787 787 787 787 787 787 787 787 786 786 786 786 785 785 785 784 784 783 783 782 781 781 781 781 780 780 779 779 778 778 777 777 776 776 775 774 774 773 772 771 771 770 769 769 768 767 766 765 764 763 762 761 760 759 757
784 785 785 785 786 786 786 786 786 787 787 787 787 787 787 787 787 787 787 787 787 787 786 786 786 786 785 785 784 784 783 783 782 782 781 781 781 780 780 779 779 778 778 777 777 776 776 775 774 774 773 772 771 771 770 769 769 768 767 766 765 764 763 762 761 760 759 757 756
784 785 785 785 786 786 786 786 786 787 787 787 787 787 787 787 787 787 787 787 787 787 787 786 786 786 785 785 784 784 783 782 782 781 781 781 780 780 779 779 778 778 777 777 776 776 775 774 774 773 772 771 771 770 769 769 768 767 766 765 764 763 762 761 760 759 757 756 755
784 785 785 785 786 786 786 786 786 787 787 787 787 787 787 787 787 787 787 787 787 787 786 786 786 785 785 784 784 783 783 782 781 781 781 780 780 779 779 778 778 777 777 776 776 775 774 774 773 772 771 771 770 769 768 768 767 766 764 763 762 762 761 760 759 757 756 755 753
784 785 785 785 786 786 786 786 786 787 787 787 787 787 787 787 787 787 787 787 787 787 786 786 786 785 785 784 783 783 782 782 781 781 780 780 779 779 778 778 777 777 776 776 775 774 773 773 772 771 770 770 769 768 767 766 766 765 763 762 761 760 760 759 757 756 755 754 752
784 784 785 785 785 786 786 786 786 787 787 787 787 787 787 787 787 787 787 787 787 787 786 786 786 785 784 784 783 782 782 781 781 780 780 779 779 778 778 777 776 776 775 775 774 773 773 772 771 770 770 769 768 767 766 765 764 763 762 761 760 759 758 757 756 755 754 752 751
784 784 785 785 785 786 786 786 786 786 787 787 787 787 787 787 787 787 787 787 787 786 786 786 785 785 784 783 783 782 781 781 781 780 779 779 778 778 777 776 776 775 775 774 773 773 772 771 770 769 768 768 767 766 765 764 763 762 761 760 759 757 756 756 755 754 752 751 749
784 784 784 785 785 786 786 786 786 786 787 787 787 787 787 787 787 787 787 787 786 786 786 786 785 784 784 783 782 782 781 781 780 780 779 778 778 777 776 776 775 775 774 773 772 772 771 770 769 768 767 766 766 765 764 763 762 761 760 758 757 756 755 754 753 752 751 749 748
784 784 784 785 785 785 786 786 786 786 787 787 787 787 787 787 787 787 787 786 786 786 786 785 785 784 783 783 782 781 781 780 780 779 778 778 777 776 776 775 775 774 773 772 771 771 770 769 768 767 766 765 765 764 763 761 761 760 758 757 756 755 754 752 751 751 749 748 746
784 784 784 785 785 785 785 786 786 786 786 787 787 787 787 787 787 787 786 786 786 786 785 785 784 784 783 782 782 781 781 780 779 779 778 777 776 776 775 774 774 773 772 771 771 770 769 768 767 766 765 764 763 762 762 761 760 758 757 756 755 754 752 751 750 749 748 746 745
784 784 784 785 785 785 785 785 786 786 786 786 786 787 787 787 787 787 786 786 786 785 785 784 784 783 783 782 781 781 780 779 779 778 777 776 776 775 774 774 773 772 771 770 770 769 768 767 766 765 764 763 762 761 761 760 759 757 756 755 754 752 751 750 749 748 746 745 743
784 784 784 784 785 785 785 785 786 786 786 786 786 786 787 787 787 786 786 786 785 785 785 784 783 783 782 781 781 780 779 779 778 777 776 776 775 774 773 772 772 771 770 769 768 768 767 766 765 764 763 762 761 760 759 758 757 756 755 754 753 751 750 749 748 747 745 744 742
784 784 784 784 784 785 785 785 785 786 786 786 786 786 786 786 786 786 786 785 785 785 784 783 783 782 781 781 780 780 779 778 777 776 776 775 774 773 772 771 771 770 769 768 767 766 766 765 764 763 762 761 760 759 758 757 756 755 754 753 752 751 749 748 747 746 744 743 741
784 784 784 784 784 784 785 785 785 785 785 786 786 786 786 786 786 786 786 785 785 784 784 783 782 781 781 780 780 779 778 777 776 776 775 774 773 772 771 771 770 769 768 767 766 766 765 764 763 762 761 760 759 758 757 756 755 754 753 752 751 750 748 747 746 745 743 742 741
784 784 784 784 784 784 784 785 785 785 785 786 786 786 786 786 786 786 785 785 784 784 783 782 782 781 780 780 779 778 777 777 776 775 774 773 772 771 771 770 769 768 767 766 766 765 764 763 762 761 760 759 758 757 756 755 753 752 751 751 749 748 747 746 745 744 742 741 739
783 784 784 784 784 784 784 784 785 785 785 785 786 786 786 786 786 785 785 784 784 783 782 782 781 781 780 779 778 777 777 776 775 774 773 772 771 771 770 769 768 767 767 766 765 764 763 762 761 760 759 757 756 755 754 753 752 751 750 749 748 747 746 745 744 743 741 740 738
783 784 784 784 784 784 784 784 784 785 785 785 786 786 786 786 785 785 785 784 783 783 782 781 781 780 779 778 778 777 776 775 774 773 772 772 771 770 769 768 767 767 766 765 764 763 761 761 760 758 757 756 755 754 753 752 751 750 749 748 747 746 745 744 743 741 740 739 737
783 783 784 784 784 784 784 784 784 785 785 785 786 786 786 785 785 785 784 784 783 782 781 781 780 779 778 778 777 776 775 774 774 773 772 771 770 769 769 768 767 766 765 764 763 762 761 760 758 757 756 755 754 753 751 750 749 748 747 746 745 744 743 742 741 740 739 737 736
783 783 784 784 784 784 784 784 784 785 785 785 786 786 785 785 785 784 784 783 782 782 781 780 780 779 778 777 776 775 774 774 773 772 771 770 769 769 768 767 766 765 764 763 761 761 759 758 757 756 755 754 752 751 750 749 748 746 746 745 744 743 742 741 740 739 737 736 735
783 783 783 783 784 784 784 784 784 785 785 785 785 785 785 785 784 784 783 782 782 781 781 780 779 778 777 776 776 775 774 773 772 771 771 770 769 768 767 766 765 764 763 762 761 760 758 757 756 755 754 753 751 750 749 748 747 746 744 743 742 741 740 739 738 737 736 735 733
783 783 783 783 783 784 784 784 784 785 785 785 785 785 785 784 783 783 782 782 781 781 780 779 778 778 777 776 775 774 773 772 771 770 769 769 768 767 766 765 764 763 762 761 760 759 758 756 755 754 752 751 750 749 748 747 746 744 743 742 741 739 738 737 737 736 734 733 732
782 783 783 783 783 784 784 784 785 785 785 785 785 785 784 783 783 782 782 781 781 780 779 779 778 777 776 775 774 773 772 771 771 769 768 767 767 766 765 764 763 762 761 760 759 758 757 756 755 753 752 750 749 748 746 746 745 743 742 741 740 738 737 736 735 734 733 732 730
782 783 783 783 783 784 784 784 785 785 785 785 785 784 783 783 782 782 781 781 780 779 779 778 777 776 775 774 773 772 771 771 770 769 768 766 766 765 764 763 762 761 760 759 758 757 756 755 754 753 751 750 748 746 745 744 743 742 741 740 739 738 736 735 733 732 731 731 729
782 782 783 783 783 784 784 784 785 785 785 785 784 784 783 782 782 781 781 780 780 779 778 777 776 775 774 773 772 771 771 770 769 768 767 766 765 764 763 762 761 760 759 758 757 756 755 754 752 751 750 749 747 746 744 743 742 741 740 739 738 737 736 734 733 731 730 729 728
782 782 782 783 783 783 784 784 785 785 784 784 784 783 782 782 781 781 780 780 779 778 777 776 775 774 773 772 771 771 770 769 768 767 766 765 764 763 762 761 760 759 758 757 756 755 754 752 751 750 749 748 746 745 743 742 741 740 739 738 737 736 735 734 732 731 729 727 726
781 782 782 782 783 783 784 784 784 784 784 783 783 782 782 781 781 780 780 779 778 777 776 775 774 773 772 771 771 770 769 768 767 766 765 764 763 762 761 760 759 758 757 756 755 753 752 751 750 749 748 747 745 744 742 741 740 739 738 737 736 735 734 733 731 730 728 726 725
781 781 782 782 783 783 783 784 784 784 783 783 782 782 781 781 780 780 779 778 777 776 775 774 773 772 772 771 770 769 768 767 766 765 764 763 762 761 760 759 757 756 755 755 753 752 751 750 749 747 746 745 744 743 741 740 739 738 737 736 735 734 733 732 730 729 727 726 724
781 781 782 782 782 783 783 783 783 783 783 782 782 781 781 780 779 779 778 777 776 775 774 774 773 772 771 770 769 768 767 766 765 764 763 762 761 759 758 757 756 755 754 753 752 751 750 748 747 746 745 744 743 741 740 739 738 737 736 735 734 733 732 731 729 728 726 725 724
781 781 781 782 782 782 783 783 783 782 782 782 781 781 780 779 779 778 777 776 775 774 773 772 771 771 770 769 768 767 766 765 764 763 762 761 760 758 757 756 755 754 753 752 751 750 748 747 746 745 744 743 741 740 739 738 737 736 735 734 733 732 731 730 728 727 726 724 723
781 781 781 782 782 782 782 782 782 782 781 781 781 780 779 778 778 777 776 775 774 773 773 772 771 770 769 768 767 766 765 764 763 762 761 760 759 757 756 755 754 753 752 751 750 748 747 746 745 744 742 741 740 739 738 737 736 735 733 732 731 731 730 728 727 726 725 723 722
781 781 781 782 782 782 782 782 781 781 781 780 780 779 778 777 776 776 775 774 773 773 772 771 770 769 768 767 766 765 764 763 762 761 760 758 757 756 755 753 752 751 751 750 748 747 746 745 744 742 741 740 739 737 736 735 734 733 732 731 730 729 728 727 726 725 723 722 720
781 781 781 781 781 781 781 781 781 781 780 779 779 778 777 776 776 775 774 773 773 772 771 770 769 769 767 766 766 765 763 762 761 759 758 757 756 755 753 752 751 750 750 749 747 746 745 743 742 741 740 738 737 736 735 734 733 731 731 729 728 727 726 726 724 723 722 720 719
781 781 781 781 781 781 781 781 780 780 779 778 778 777 776 776 775 774 773 773 772 771 770 769 768 767 766 766 764 763 762 761 759 758 757 756 755 753 752 751 750 749 748 747 746 745 744 742 741 740 738 737 736 735 734 732 731 730 729 728 727 726 725 724 723 721 720 719 717
780 781 781 781 781 780 780 780 779 779 778 777 777 776 776 775 774 773 773 772 771 770 769 768 767 766 766 765 763 762 761 760 758 757 756 755 754 752 751 749 748 747 746 746 745 744 742 741 740 739 737 736 735 733 732 731 730 729 728 727 726 725 724 722 721 720 718 717 716
780 780 780 780 780 780 779 779 778 778 777 776 776 775 775 774 773 772 772 771 771 770 769 768 767 766 765 764 762 761 760 759 758 756 755 754 753 751 750 748 747 746 745 744 743 742 741 740 739 737 736 735 734 732 731 730 729 728 727 726 724 723 722 721 720 718 717 715 714
779 780 779 779 779 779 778 778 777 777 776 776 775 775 774 773 772 772 771 771 770 769 768 767 766 765 764 762 761 760 759 757 756 756 754 753 751 751 749 747 746 745 744 743 742 741 740 739 738 736 735 734 733 731 730 729 728 726 726 725 723 722 721 720 718 717 715 713 711
779 779 779 779 778 778 778 777 777 776 776 775 775 774 773 773 772 771 771 770 770 769 768 766 765 764 763 761 760 759 757 756 755 754 753 752 751 750 748 746 745 744 743 742 741 740 739 738 736 736 734 733 732 731 729 728 727 726 725 724 722 721 719 718 717 715 713 711 709
778 778 778 778 778 777 777 776 776 776 775 774 774 773 773 772 771 771 770 770 769 768 767 766 764 763 762 761 759 758 756 755 754 753 752 751 750 748 747 746 744 742 741 741 740 739 737 736 736 735 733 732 731 730 729 727 726 725 723 722 721 720 718 716 715 713 711 708 706